DW6399 Weather Reports


Display with metric or nautical units.
time (UTC)temp
F
wind
direction
speed
MPH
gust
MPH
rain 1hr
in
rain 24hr
in
rain mn
in
humidity
%
barometer
mb
20260901060004 60 200 1.0 5.0 0.00 0.01 0.00 95 1002.3
20260901055404 60 188 1.0 4.0 0.00 0.01 0.00 95 1002.3
20260901054504 59 192 1.0 3.0 0.00 0.01 0.00 96 1002.3
20260901053625 59 192 0.0 3.0 0.00 0.01 0.00 96 1002.1
20260901052704 59 208 1.0 4.0 0.00 0.01 0.00 96 1002.1
20260901051804 59 186 1.0 5.0 0.00 0.01 0.00 96 1002.1
20260901050904 59 275 1.0 4.0 0.00 0.01 0.00 96 1002.0
20260901050025 59 287 1.0 5.0 0.00 0.01 0.00 96 1002.0
20260901045404 59 284 1.0 4.0 0.00 0.01 0.00 96 1002.0
20260901044506 59 204 0.0 4.0 0.00 0.01 0.00 97 1001.9
20260901043604 59 191 0.0 2.0 0.00 0.01 0.00 97 1001.8
20260901042704 59 191 1.0 4.0 0.00 0.01 0.00 97 1002.0
20260901041804 59 189 1.0 4.0 0.00 0.01 0.00 97 1002.0
20260901040904 59 199 1.0 4.0 0.00 0.01 0.00 96 1001.9
20260901040004 59 242 1.0 3.0 0.00 0.01 0.00 97 1002.0
20260901035404 59 267 0.0 2.0 0.00 0.01 0.00 96 1002.0
20260901034504 59 279 1.0 4.0 0.00 0.01 0.00 97 1002.0
20260901033604 59 283 1.0 4.0 0.00 0.01 0.00 97 1002.0
20260901032704 59 293 1.0 4.0 0.00 0.01 0.00 97 1002.0
20260901031804 59 166 1.0 4.0 0.00 0.01 0.00 97 1002.1
20260901030904 59 155 1.0 5.0 0.00 0.01 0.00 97 1002.0
20260901030004 59 155 0.0 3.0 0.00 0.01 0.00 97 1002.0
20260901025404 59 155 0.0 2.0 0.00 0.01 0.00 97 1002.0
20260901024504 59 155 1.0 2.0 0.00 0.01 0.00 96 1002.0
20260901023604 59 155 1.0 3.0 0.00 0.01 0.00 97 1001.9
20260901022704 59 155 0.0 2.0 0.00 0.01 0.00 97 1001.8
20260901021804 59 155 1.0 6.0 0.00 0.01 0.00 97 1001.8
20260901020925 59 155 0.0 3.0 0.00 0.01 0.00 96 1001.8
20260901020004 59 155 0.0 3.0 0.00 0.01 0.00 96 1001.8
20260901015404 59 155 1.0 5.0 0.00 0.01 0.00 96 1001.8
20260901014504 59 155 2.0 5.0 0.00 0.01 0.00 96 1001.8
20260901013604 59 155 1.0 3.0 0.00 0.01 0.00 96 1001.8
20260901012704 59 155 2.0 3.0 0.00 0.01 0.00 96 1001.8
20260901011804 59 155 1.0 3.0 0.00 0.01 0.00 96 1001.8
20260901010904 59 155 1.0 2.0 0.00 0.01 0.00 96 1001.8
20260901010004 59 155 1.0 3.0 0.00 0.01 0.00 96 1001.9
20260901005404 59 155 1.0 2.0 0.00 0.01 0.00 96 1001.9
20260901004504 59 155 2.0 5.0 0.00 0.01 0.00 96 1001.9
20260901003604 59 155 2.0 6.0 0.00 0.02 0.00 96 1002.0
20260901002704 59 153 2.0 6.0 0.00 0.02 0.00 96 1002.0
20260901001804 59 152 2.0 5.0 0.00 0.02 0.00 96 1002.0
20260901000904 59 151 2.0 5.0 0.00 0.02 0.00 96 1002.1
20260901000004 59 150 1.0 4.0 0.00 0.02 0.00 96 1002.1
20260831235404 59 150 1.0 2.0 0.00 0.02 0.00 96 1002.1
20260831234504 59 150 1.0 3.0 0.00 0.02 0.00 96 1002.2
20260831233604 59 150 1.0 3.0 0.00 0.02 0.00 96 1002.2
20260831232705 59 150 1.0 3.0 0.00 0.02 0.00 96 1002.1
20260831231804 59 149 0.0 1.0 0.00 0.02 0.00 96 1002.2
20260831230904 59 149 0.0 1.0 0.00 0.02 0.00 96 1002.2
20260831230004 59 143 1.0 3.0 0.00 0.02 0.00 96 1002.2
20260831225404 59 133 1.0 3.0 0.00 0.02 0.00 96 1002.2
20260831224504 59 129 1.0 3.0 0.00 0.02 0.00 96 1002.2
20260831223604 59 129 1.0 2.0 0.00 0.02 0.00 96 1002.3
20260831222704 59 129 1.0 2.0 0.00 0.02 0.00 96 1002.2
20260831221804 59 144 1.0 3.0 0.00 0.02 0.00 96 1002.3
20260831220925 59 149 1.0 3.0 0.00 0.02 0.00 96 1002.3
20260831220004 58 149 2.0 3.0 0.00 0.02 0.00 96 1002.4
20260831215425 58 149 1.0 2.0 0.00 0.02 0.00 95 1002.4
20260831214504 58 149 1.0 2.0 0.00 0.02 0.00 95 1002.3
20260831213604 59 149 1.0 2.0 0.00 0.02 0.00 95 1002.3
20260831212704 59 149 0.0 2.0 0.00 0.02 0.00 95 1002.3
20260831211804 60 149 1.0 2.0 0.00 0.02 0.00 95 1002.3
20260831210904 60 149 1.0 2.0 0.00 0.02 0.00 95 1002.3
20260831210026 60 149 1.0 2.0 0.00 0.02 0.00 95 1002.4
20260831205404 60 149 1.0 3.0 0.00 0.02 0.02 95 1002.4
20260831204504 60 128 2.0 5.0 0.00 0.02 0.02 96 1002.4
20260831203604 60 135 2.0 4.0 0.00 0.02 0.02 96 1002.5
20260831202704 60 152 2.0 5.0 0.00 0.02 0.02 96 1002.4
20260831201804 61 139 2.0 4.0 0.00 0.02 0.02 96 1002.5
20260831200904 61 120 1.0 3.0 0.00 0.02 0.02 95 1002.4
20260831200004 61 123 2.0 3.0 0.00 0.02 0.02 95 1002.4
20260831195404 61 118 1.0 3.0 0.00 0.02 0.02 95 1002.4
20260831194504 61 121 1.0 3.0 0.00 0.02 0.02 95 1002.4
20260831193604 61 121 1.0 3.0 0.00 0.02 0.02 95 1002.5
20260831192704 61 103 1.0 3.0 0.00 0.03 0.02 95 1002.4
20260831191825 61 105 1.0 3.0 0.00 0.07 0.02 95 1002.5
20260831190904 61 105 1.0 3.0 0.00 0.08 0.02 95 1002.5
20260831190025 61 105 1.0 3.0 0.00 0.12 0.02 95 1002.4
20260831185404 61 105 1.0 3.0 0.00 0.13 0.02 95 1002.4
20260831184504 61 107 2.0 4.0 0.00 0.16 0.02 95 1002.4
20260831183604 60 124 1.0 4.0 0.00 0.17 0.02 95 1002.4
20260831182704 61 113 1.0 3.0 0.00 0.18 0.02 95 1002.3
20260831181804 61 128 1.0 3.0 0.00 0.18 0.02 94 1002.3
20260831180904 61 129 1.0 3.0 0.00 0.18 0.02 94 1002.4
20260831180004 61 119 2.0 3.0 0.00 0.18 0.02 94 1002.4
20260831175404 61 106 2.0 4.0 0.00 0.18 0.02 94 1002.4
20260831174504 61 120 2.0 6.0 0.00 0.18 0.02 94 1002.3
20260831173604 61 123 2.0 6.0 0.00 0.18 0.02 94 1002.4
20260831172704 61 124 3.0 7.0 0.00 0.18 0.02 94 1002.5
20260831171804 62 126 3.0 6.0 0.00 0.18 0.02 94 1002.5
20260831170904 62 124 3.0 6.0 0.00 0.18 0.02 93 1002.4
20260831170004 62 119 2.0 6.0 0.00 0.18 0.02 93 1002.5
20260831165404 62 127 2.0 5.0 0.00 0.18 0.02 93 1002.5
20260831164504 62 124 3.0 6.0 0.00 0.18 0.02 93 1002.4
20260831163625 62 129 2.0 6.0 0.00 0.18 0.02 93 1002.4
20260831162704 62 143 2.0 4.0 0.00 0.18 0.02 92 1002.4
20260831161804 62 120 3.0 7.0 0.00 0.18 0.02 92 1002.4
20260831160904 62 111 3.0 8.0 0.00 0.18 0.02 93 1002.5
20260831160004 62 118 3.0 6.0 0.00 0.18 0.02 93 1002.5
20260831155404 62 122 2.0 5.0 0.00 0.18 0.02 92 1002.6
20260831154504 62 120 3.0 6.0 0.00 0.18 0.02 92 1002.6
20260831153604 62 124 2.0 6.0 0.00 0.18 0.02 92 1002.6
20260831152725 62 128 2.0 6.0 0.00 0.18 0.02 92 1002.6
20260831151804 62 144 4.0 7.0 0.00 0.18 0.02 92 1002.6
20260831150904 62 139 4.0 8.0 0.00 0.18 0.02 91 1002.7
20260831150025 63 133 4.0 8.0 0.00 0.18 0.02 91 1002.7
20260831145425 63 130 4.0 11.0 0.00 0.18 0.02 91 1002.7
20260831144525 63 143 3.0 9.0 0.00 0.18 0.02 91 1002.7
20260831143604 63 142 2.0 5.0 0.00 0.18 0.02 92 1002.8
20260831142704 63 150 3.0 8.0 0.00 0.18 0.02 92 1002.8
20260831141804 63 135 3.0 6.0 0.00 0.18 0.02 92 1002.8
20260831140904 63 117 3.0 7.0 0.00 0.18 0.02 92 1002.8
20260831140004 62 138 2.0 5.0 0.00 0.18 0.02 93 1002.8
20260831135404 62 153 3.0 5.0 0.00 0.18 0.02 93 1002.9
20260831134504 62 159 2.0 4.0 0.00 0.18 0.02 93 1002.9
20260831133604 62 158 3.0 7.0 0.00 0.18 0.02 93 1002.9
20260831132725 62 144 5.0 9.0 0.00 0.18 0.02 93 1002.9
20260831131804 62 150 4.0 9.0 0.00 0.18 0.02 93 1003.0
20260831130904 62 142 3.0 7.0 0.00 0.18 0.02 94 1003.0
20260831130004 62 134 3.0 7.0 0.00 0.18 0.02 94 1003.1
20260831125404 62 132 3.0 7.0 0.00 0.18 0.02 95 1003.1
20260831124504 61 127 2.0 6.0 0.00 0.18 0.02 95 1003.2
20260831123604 61 131 3.0 7.0 0.00 0.18 0.02 95 1003.2
20260831122704 61 135 3.0 6.0 0.00 0.18 0.02 95 1003.2
20260831121804 61 142 3.0 6.0 0.00 0.18 0.02 95 1003.3
20260831120904 61 130 3.0 6.0 0.00 0.18 0.02 95 1003.2
20260831120004 60 123 3.0 7.0 0.00 0.18 0.02 94 1003.2
20260831115425 61 125 3.0 7.0 0.00 0.18 0.02 94 1003.3
20260831114504 61 127 2.0 4.0 0.00 0.18 0.02 95 1003.3
20260831113604 60 126 3.0 5.0 0.00 0.18 0.02 94 1003.4
20260831112725 60 132 3.0 8.0 0.00 0.18 0.02 94 1003.4
20260831111825 60 130 4.0 8.0 0.01 0.18 0.02 94 1003.4
20260831110904 60 132 4.0 8.0 0.01 0.18 0.02 94 1003.4
20260831110004 60 131 5.0 9.0 0.01 0.18 0.02 94 1003.4
20260831105404 60 129 4.0 8.0 0.01 0.18 0.02 94 1003.5
20260831104504 60 108 2.0 3.0 0.01 0.18 0.02 94 1003.5
20260831103604 60 101 1.0 6.0 0.01 0.18 0.02 93 1003.5
20260831102704 60 112 2.0 6.0 0.01 0.18 0.02 93 1003.5
20260831101804 60 133 3.0 8.0 0.00 0.17 0.01 92 1003.6
20260831100904 60 151 7.0 12.0 0.00 0.17 0.01 92 1003.6
20260831100004 60 138 6.0 13.0 0.00 0.17 0.01 92 1003.6
20260831095404 61 143 4.0 11.0 0.00 0.17 0.01 92 1003.6
20260831094504 61 142 5.0 10.0 0.00 0.17 0.01 91 1003.5
20260831093604 61 145 6.0 14.0 0.00 0.17 0.01 91 1003.5
20260831092704 61 147 7.0 14.0 0.00 0.17 0.01 91 1003.5
20260831091804 61 153 5.0 10.0 0.00 0.17 0.01 92 1003.4
20260831090904 61 147 4.0 9.0 0.00 0.17 0.01 93 1003.5
20260831090004 60 137 3.0 8.0 0.00 0.18 0.01 93 1003.5
20260831085404 60 143 5.0 10.0 0.00 0.18 0.01 92 1003.4
20260831084504 60 141 6.0 12.0 0.00 0.18 0.01 92 1003.5
20260831083604 60 145 6.0 13.0 0.00 0.18 0.01 93 1003.6
20260831082704 60 147 5.0 10.0 0.00 0.18 0.01 94 1003.6
20260831081804 60 145 4.0 9.0 0.00 0.18 0.01 94 1003.6
20260831080904 60 147 5.0 9.0 0.00 0.18 0.01 94 1003.6
20260831080004 60 148 4.0 7.0 0.00 0.18 0.01 95 1003.6
20260831075404 60 153 4.0 8.0 0.00 0.18 0.01 95 1003.6
20260831074504 60 148 4.0 7.0 0.00 0.18 0.01 95 1003.7
20260831073604 59 150 3.0 7.0 0.00 0.18 0.01 96 1003.7
20260831072704 59 149 4.0 7.0 0.00 0.18 0.01 96 1003.8
20260831071825 59 152 5.0 8.0 0.00 0.18 0.01 96 1003.8
20260831070904 58 155 5.0 9.0 0.00 0.19 0.01 96 1003.8
20260831070004 58 149 4.0 8.0 0.00 0.19 0.01 96 1003.8
20260831065404 58 151 3.0 7.0 0.00 0.19 0.01 96 1003.8
20260831064504 58 160 5.0 10.0 0.00 0.20 0.01 96 1003.8
20260831063604 58 166 5.0 12.0 0.00 0.20 0.01 96 1003.9
20260831062704 58 154 4.0 8.0 0.00 0.20 0.01 97 1003.8
20260831061825 58 154 4.0 10.0 0.00 0.21 0.01 97 1003.8
20260831060904 58 155 6.0 11.0 0.00 0.23 0.01 96 1003.8